Time,TemperatureF,DewpointF,PressureIn,WindDirection,WindDirectionDegrees,WindSpeedMPH,WindSpeedGustMPH,Humidity,HourlyPrecipIn,Conditions,Clouds,dailyrainin,SoftwareType,DateUTC
2013-09-05 00:01:00,66.8,63.1,29.88,South,180,0.0,1.1,88,0.00,,,0.00,WUHU216HW,2013-09-05 04:01:00,
2013-09-05 00:06:00,66.6,62.9,29.88,South,180,0.0,0.4,88,0.00,,,0.00,WUHU216HW,2013-09-05 04:06:00,
2013-09-05 00:11:00,66.4,62.7,29.88,South,180,0.0,0.4,88,0.00,,,0.00,WUHU216HW,2013-09-05 04:11:00,
2013-09-05 00:16:00,66.4,63.0,29.89,South,180,0.0,0.0,89,0.00,,,0.00,WUHU216HW,2013-09-05 04:16:00,
2013-09-05 00:21:00,66.4,63.0,29.88,South,180,0.0,0.0,89,0.00,,,0.00,WUHU216HW,2013-09-05 04:21:00,
2013-09-05 00:26:00,66.4,63.0,29.89,South,180,0.0,0.0,89,0.00,,,0.00,WUHU216HW,2013-09-05 04:26:00,
2013-09-05 00:31:00,66.4,63.0,29.89,South,180,0.0,0.0,89,0.00,,,0.00,WUHU216HW,2013-09-05 04:31:00,
2013-09-05 00:36:00,66.6,63.5,29.89,South,180,0.0,0.0,90,0.00,,,0.00,WUHU216HW,2013-09-05 04:36:00,
2013-09-05 00:41:00,66.8,63.4,29.88,South,180,0.0,0.0,89,0.00,,,0.00,WUHU216HW,2013-09-05 04:41:00,
2013-09-05 00:46:00,66.8,63.4,29.88,South,180,0.0,0.0,89,0.00,,,0.00,WUHU216HW,2013-09-05 04:46:00,
2013-09-05 00:51:00,66.8,63.4,29.88,South,180,0.0,0.0,89,0.00,,,0.00,WUHU216HW,2013-09-05 04:51:00,
2013-09-05 00:56:00,67.0,63.5,29.88,South,180,0.0,0.0,89,0.00,,,0.00,WUHU216HW,2013-09-05 04:56:00,
2013-09-05 01:01:00,67.0,63.5,29.88,South,180,0.0,0.0,89,0.00,,,0.00,WUHU216HW,2013-09-05 05:01:00,
2013-09-05 01:06:00,67.0,63.5,29.88,South,180,0.0,0.0,89,0.00,,,0.00,WUHU216HW,2013-09-05 05:06:00,
2013-09-05 01:11:00,66.6,63.2,29.88,South,180,0.4,0.4,89,0.00,,,0.00,WUHU216HW,2013-09-05 05:11:00,
2013-09-05 01:16:00,66.6,63.2,29.88,South,180,0.0,0.9,89,0.00,,,0.00,WUHU216HW,2013-09-05 05:16:00,
2013-09-05 01:21:00,66.2,62.8,29.88,South,180,0.0,0.9,89,0.00,,,0.00,WUHU216HW,2013-09-05 05:21:00,
2013-09-05 01:26:00,66.1,63.0,29.88,East,90,0.2,0.7,90,0.00,,,0.00,WUHU216HW,2013-09-05 05:26:00,
2013-09-05 01:31:00,66.1,63.4,29.89,ENE,68,0.4,0.9,91,0.00,,,0.00,WUHU216HW,2013-09-05 05:31:00,
2013-09-05 01:36:00,66.1,63.4,29.88,NE,45,0.0,0.9,91,0.00,,,0.00,WUHU216HW,2013-09-05 05:36:00,
2013-09-05 01:41:00,65.9,63.2,29.88,SE,135,0.2,0.9,91,0.00,,,0.00,WUHU216HW,2013-09-05 05:41:00,
2013-09-05 01:46:00,65.9,63.2,29.88,SSE,158,0.7,0.7,91,0.00,,,0.00,WUHU216HW,2013-09-05 05:46:00,
2013-09-05 01:51:00,65.5,62.6,29.87,SSE,158,0.2,0.7,90,0.00,,,0.00,WUHU216HW,2013-09-05 05:51:00,
2013-09-05 01:56:00,65.5,62.6,29.87,SSE,158,0.0,0.7,90,0.00,,,0.00,WUHU216HW,2013-09-05 05:56:00,
2013-09-05 02:01:00,65.3,62.4,29.87,SSE,158,0.0,0.7,90,0.00,,,0.00,WUHU216HW,2013-09-05 06:01:00,
2013-09-05 02:06:00,65.3,62.4,29.86,South,180,0.7,0.7,90,0.00,,,0.00,WUHU216HW,2013-09-05 06:06:00,
2013-09-05 02:11:00,65.3,62.4,29.87,SSE,158,0.0,0.7,90,0.00,,,0.00,WUHU216HW,2013-09-05 06:11:00,
2013-09-05 02:16:00,65.3,62.4,29.86,South,180,0.7,0.9,90,0.00,,,0.00,WUHU216HW,2013-09-05 06:16:00,
2013-09-05 02:21:00,65.5,62.6,29.86,ENE,68,0.0,0.9,90,0.00,,,0.00,WUHU216HW,2013-09-05 06:21:00,
2013-09-05 02:26:00,65.7,62.4,29.86,East,90,0.0,0.7,89,0.00,,,0.00,WUHU216HW,2013-09-05 06:26:00,
2013-09-05 02:31:00,65.7,62.7,29.86,ESE,113,0.0,0.4,90,0.00,,,0.00,WUHU216HW,2013-09-05 06:31:00,
2013-09-05 02:36:00,65.7,62.4,29.86,SSE,158,0.4,1.1,89,0.00,,,0.00,WUHU216HW,2013-09-05 06:36:00,
2013-09-05 02:41:00,65.5,62.2,29.86,South,180,0.9,1.1,89,0.00,,,0.00,WUHU216HW,2013-09-05 06:41:00,
2013-09-05 02:46:00,65.2,61.8,29.86,South,180,0.0,1.1,89,0.00,,,0.00,WUHU216HW,2013-09-05 06:46:00,
2013-09-05 02:51:00,65.2,62.2,29.86,NE,45,0.4,1.1,90,0.00,,,0.00,WUHU216HW,2013-09-05 06:51:00,
2013-09-05 02:56:00,65.2,62.2,29.86,NE,45,0.0,0.9,90,0.00,,,0.00,WUHU216HW,2013-09-05 06:56:00,
2013-09-05 03:01:00,65.0,61.8,29.86,ENE,68,0.0,0.4,89,0.00,,,0.00,WUHU216HW,2013-09-05 07:01:00,
2013-09-05 03:06:00,64.6,61.8,29.85,South,180,0.0,0.4,90,0.00,,,0.00,WUHU216HW,2013-09-05 07:06:00,
2013-09-05 03:11:00,64.4,61.6,29.85,South,180,0.7,0.7,90,0.00,,,0.00,WUHU216HW,2013-09-05 07:11:00,
2013-09-05 03:16:00,64.3,61.4,29.85,South,180,0.9,1.1,90,0.00,,,0.00,WUHU216HW,2013-09-05 07:16:00,
2013-09-05 03:21:00,64.1,61.2,29.85,South,180,0.9,1.1,90,0.00,,,0.00,WUHU216HW,2013-09-05 07:21:00,
2013-09-05 03:26:00,64.1,61.2,29.85,South,180,0.7,1.3,90,0.00,,,0.00,WUHU216HW,2013-09-05 07:26:00,
2013-09-05 03:31:00,64.1,61.2,29.85,SSW,203,0.9,1.3,90,0.00,,,0.00,WUHU216HW,2013-09-05 07:31:00,
2013-09-05 03:36:00,64.1,61.5,29.85,South,180,1.1,1.3,91,0.00,,,0.00,WUHU216HW,2013-09-05 07:36:00,
2013-09-05 03:41:00,64.1,61.5,29.85,South,180,0.4,1.6,91,0.00,,,0.00,WUHU216HW,2013-09-05 07:41:00,
2013-09-05 03:46:00,64.1,61.5,29.85,South,180,0.4,1.6,91,0.00,,,0.00,WUHU216HW,2013-09-05 07:46:00,
2013-09-05 03:51:00,64.1,61.5,29.85,South,180,0.0,1.1,91,0.00,,,0.00,WUHU216HW,2013-09-05 07:51:00,
2013-09-05 03:56:00,63.9,61.3,29.85,South,180,0.4,1.1,91,0.00,,,0.00,WUHU216HW,2013-09-05 07:56:00,
2013-09-05 04:01:00,63.7,61.1,29.85,South,180,0.4,1.1,91,0.00,,,0.00,WUHU216HW,2013-09-05 08:01:00,
2013-09-05 04:06:00,63.7,61.1,29.85,South,180,1.1,1.1,91,0.00,,,0.00,WUHU216HW,2013-09-05 08:06:00,
2013-09-05 04:11:00,63.7,61.1,29.85,SSW,203,0.0,1.1,91,0.00,,,0.00,WUHU216HW,2013-09-05 08:11:00,
2013-09-05 04:16:00,63.7,61.4,29.85,South,180,0.4,1.1,92,0.00,,,0.00,WUHU216HW,2013-09-05 08:16:00,
2013-09-05 04:21:00,63.7,61.4,29.85,South,180,0.0,0.7,92,0.00,,,0.00,WUHU216HW,2013-09-05 08:21:00,
2013-09-05 04:26:00,63.7,61.4,29.85,South,180,0.0,0.7,92,0.00,,,0.00,WUHU216HW,2013-09-05 08:26:00,
2013-09-05 04:31:00,63.7,61.4,29.85,South,180,0.2,0.2,92,0.00,,,0.00,WUHU216HW,2013-09-05 08:31:00,
2013-09-05 04:36:00,63.7,61.4,29.85,South,180,0.0,0.4,92,0.00,,,0.00,WUHU216HW,2013-09-05 08:36:00,
2013-09-05 04:41:00,63.5,61.2,29.85,South,180,0.0,0.4,92,0.00,,,0.00,WUHU216HW,2013-09-05 08:41:00,
2013-09-05 04:46:00,63.5,61.2,29.85,South,180,0.7,1.1,92,0.00,,,0.00,WUHU216HW,2013-09-05 08:46:00,
2013-09-05 04:51:00,63.5,61.2,29.85,South,180,0.2,1.1,92,0.00,,,0.00,WUHU216HW,2013-09-05 08:51:00,
2013-09-05 04:56:00,63.4,61.0,29.85,South,180,0.4,1.1,92,0.00,,,0.00,WUHU216HW,2013-09-05 08:56:00,
2013-09-05 05:01:00,63.4,61.0,29.85,South,180,0.2,1.1,92,0.00,,,0.00,WUHU216HW,2013-09-05 09:01:00,
2013-09-05 05:06:00,63.4,61.0,29.85,SSW,203,0.0,0.4,92,0.00,,,0.00,WUHU216HW,2013-09-05 09:06:00,
2013-09-05 05:11:00,63.5,61.2,29.85,SSW,203,0.0,0.4,92,0.00,,,0.00,WUHU216HW,2013-09-05 09:11:00,
2013-09-05 05:16:00,63.4,61.0,29.85,SSW,203,0.0,0.4,92,0.00,,,0.00,WUHU216HW,2013-09-05 09:16:00,
2013-09-05 05:21:00,63.2,60.8,29.85,SSW,203,0.0,0.4,92,0.00,,,0.00,WUHU216HW,2013-09-05 09:21:00,
2013-09-05 05:26:00,63.2,60.8,29.85,SSW,203,0.0,0.4,92,0.00,,,0.00,WUHU216HW,2013-09-05 09:26:00,
2013-09-05 05:31:00,63.2,60.8,29.85,South,180,0.0,0.4,92,0.00,,,0.00,WUHU216HW,2013-09-05 09:31:00,
2013-09-05 05:36:00,63.0,60.7,29.85,South,180,0.0,0.7,92,0.00,,,0.00,WUHU216HW,2013-09-05 09:36:00,
2013-09-05 05:41:00,63.0,61.0,29.85,SSE,158,0.0,0.7,93,0.00,,,0.00,WUHU216HW,2013-09-05 09:41:00,
2013-09-05 05:46:00,63.0,61.0,29.86,SSE,158,0.2,0.4,93,0.00,,,0.00,WUHU216HW,2013-09-05 09:46:00,
2013-09-05 05:51:00,63.0,61.0,29.86,SSE,158,0.4,0.4,93,0.00,,,0.00,WUHU216HW,2013-09-05 09:51:00,
2013-09-05 05:56:00,63.0,61.0,29.86,South,180,0.2,0.9,93,0.00,,,0.00,WUHU216HW,2013-09-05 09:56:00,
2013-09-05 06:01:00,63.0,61.0,29.86,South,180,0.4,0.9,93,0.00,,,0.00,WUHU216HW,2013-09-05 10:01:00,
2013-09-05 06:06:00,63.0,61.0,29.86,South,180,0.9,0.9,93,0.00,,,0.00,WUHU216HW,2013-09-05 10:06:00,
2013-09-05 06:11:00,63.0,61.0,29.86,South,180,0.4,0.9,93,0.00,,,0.00,WUHU216HW,2013-09-05 10:11:00,
2013-09-05 06:16:00,62.8,60.9,29.86,South,180,0.0,0.7,93,0.00,,,0.00,WUHU216HW,2013-09-05 10:16:00,
2013-09-05 06:21:00,62.8,60.9,29.86,South,180,0.0,0.4,93,0.00,,,0.00,WUHU216HW,2013-09-05 10:21:00,
2013-09-05 06:26:00,62.8,60.9,29.86,South,180,0.0,0.7,93,0.00,,,0.00,WUHU216HW,2013-09-05 10:26:00,
2013-09-05 06:31:00,62.8,60.9,29.86,South,180,0.0,0.7,93,0.00,,,0.00,WUHU216HW,2013-09-05 10:31:00,
2013-09-05 06:36:00,62.8,60.9,29.86,South,180,0.0,0.4,93,0.00,,,0.00,WUHU216HW,2013-09-05 10:36:00,
2013-09-05 06:41:00,62.8,60.9,29.87,South,180,0.0,0.4,93,0.00,,,0.00,WUHU216HW,2013-09-05 10:41:00,
2013-09-05 06:46:00,63.0,61.0,29.87,South,180,0.0,0.0,93,0.00,,,0.00,WUHU216HW,2013-09-05 10:46:00,
2013-09-05 06:51:00,63.0,61.0,29.87,South,180,0.0,0.4,93,0.00,,,0.00,WUHU216HW,2013-09-05 10:51:00,
2013-09-05 06:56:00,62.8,60.9,29.87,South,180,0.0,0.7,93,0.00,,,0.00,WUHU216HW,2013-09-05 10:56:00,
2013-09-05 07:01:00,63.0,61.0,29.87,South,180,0.0,0.7,93,0.00,,,0.00,WUHU216HW,2013-09-05 11:01:00,
2013-09-05 07:06:00,63.0,61.0,29.87,South,180,0.4,0.7,93,0.00,,,0.00,WUHU216HW,2013-09-05 11:06:00,
2013-09-05 07:11:00,62.8,60.9,29.87,SSE,158,0.0,0.7,93,0.00,,,0.00,WUHU216HW,2013-09-05 11:11:00,
2013-09-05 07:16:00,62.8,60.9,29.87,SSE,158,0.2,0.7,93,0.00,,,0.00,WUHU216HW,2013-09-05 11:16:00,
2013-09-05 07:21:00,62.8,60.9,29.87,SSE,158,0.0,0.4,93,0.00,,,0.00,WUHU216HW,2013-09-05 11:21:00,
2013-09-05 07:26:00,62.8,60.9,29.87,SSE,158,0.0,0.0,93,0.00,,,0.00,WUHU216HW,2013-09-05 11:26:00,
2013-09-05 07:31:00,62.6,60.7,29.88,South,180,0.0,0.7,93,0.00,,,0.00,WUHU216HW,2013-09-05 11:31:00,
2013-09-05 07:36:00,63.0,61.0,29.88,South,180,0.0,0.7,93,0.00,,,0.00,WUHU216HW,2013-09-05 11:36:00,
2013-09-05 07:41:00,63.0,61.0,29.88,South,180,0.0,0.0,93,0.00,,,0.00,WUHU216HW,2013-09-05 11:41:00,
2013-09-05 07:46:00,63.2,61.2,29.88,South,180,0.0,0.0,93,0.00,,,0.00,WUHU216HW,2013-09-05 11:46:00,
2013-09-05 07:51:00,63.4,61.4,29.88,South,180,0.0,0.0,93,0.00,,,0.00,WUHU216HW,2013-09-05 11:51:00,
2013-09-05 07:56:00,63.5,61.6,29.88,South,180,0.0,0.0,93,0.00,,,0.00,WUHU216HW,2013-09-05 11:56:00,
2013-09-05 08:01:00,63.7,61.8,29.88,South,180,0.0,0.0,93,0.00,,,0.00,WUHU216HW,2013-09-05 12:01:00,
2013-09-05 08:06:00,64.1,62.1,29.88,ESE,113,0.0,0.0,93,0.00,,,0.00,WUHU216HW,2013-09-05 12:06:00,
2013-09-05 08:11:00,64.1,62.1,29.88,ESE,113,0.0,0.0,93,0.00,,,0.00,WUHU216HW,2013-09-05 12:11:00,
2013-09-05 08:16:00,64.3,62.3,29.88,ESE,113,0.0,0.0,93,0.00,,,0.00,WUHU216HW,2013-09-05 12:16:00,
2013-09-05 08:21:00,64.3,62.3,29.88,SE,135,0.0,0.0,93,0.00,,,0.00,WUHU216HW,2013-09-05 12:21:00,
2013-09-05 08:26:00,64.4,62.5,29.89,South,180,0.0,0.0,93,0.00,,,0.00,WUHU216HW,2013-09-05 12:26:00,
2013-09-05 08:31:00,64.8,62.7,29.89,South,180,0.2,0.7,93,0.00,,,0.00,WUHU216HW,2013-09-05 12:31:00,
2013-09-05 08:36:00,65.0,62.9,29.89,SSW,203,0.0,1.1,93,0.00,,,0.00,WUHU216HW,2013-09-05 12:36:00,
2013-09-05 08:41:00,65.3,63.3,29.89,SSW,203,0.4,1.1,93,0.00,,,0.00,WUHU216HW,2013-09-05 12:41:00,
2013-09-05 08:46:00,65.7,63.6,29.89,South,180,0.0,1.1,93,0.00,,,0.00,WUHU216HW,2013-09-05 12:46:00,
2013-09-05 08:51:00,66.1,63.9,29.89,South,180,0.0,1.1,93,0.00,,,0.00,WUHU216HW,2013-09-05 12:51:00,
2013-09-05 08:56:00,66.4,64.6,29.89,South,180,0.0,0.0,94,0.00,,,0.00,WUHU216HW,2013-09-05 12:56:00,
2013-09-05 09:01:00,66.6,64.8,29.89,South,180,0.0,0.0,94,0.00,,,0.00,WUHU216HW,2013-09-05 13:01:00,
2013-09-05 09:06:00,67.0,65.2,29.89,South,180,0.0,0.2,94,0.00,,,0.00,WUHU216HW,2013-09-05 13:06:00,
2013-09-05 09:11:00,67.3,65.2,29.89,South,180,0.0,0.2,93,0.00,,,0.00,WUHU216HW,2013-09-05 13:11:00,
2013-09-05 09:16:00,67.7,65.5,29.89,SSW,203,0.4,0.4,93,0.00,,,0.00,WUHU216HW,2013-09-05 13:16:00,
2013-09-05 09:21:00,68.0,65.9,29.89,SSW,203,0.0,1.1,93,0.00,,,0.00,WUHU216HW,2013-09-05 13:21:00,
2013-09-05 09:26:00,68.4,66.2,29.89,SSW,203,0.0,1.1,93,0.00,,,0.00,WUHU216HW,2013-09-05 13:26:00,
2013-09-05 09:31:00,68.9,66.5,29.89,SSW,203,0.0,0.2,92,0.00,,,0.00,WUHU216HW,2013-09-05 13:31:00,
2013-09-05 09:36:00,69.5,66.7,29.89,SSW,203,0.0,0.2,91,0.00,,,0.00,WUHU216HW,2013-09-05 13:36:00,
2013-09-05 09:41:00,69.5,66.7,29.89,NE,45,0.2,0.4,91,0.00,,,0.00,WUHU216HW,2013-09-05 13:41:00,
2013-09-05 09:46:00,69.5,66.7,29.89,NE,45,0.9,0.9,91,0.00,,,0.00,WUHU216HW,2013-09-05 13:46:00,
2013-09-05 09:51:00,69.3,66.2,29.89,NE,45,0.4,1.8,90,0.00,,,0.00,WUHU216HW,2013-09-05 13:51:00,
2013-09-05 09:56:00,69.3,66.5,29.89,NE,45,0.0,1.8,91,0.00,,,0.00,WUHU216HW,2013-09-05 13:56:00,
2013-09-05 10:01:00,69.5,66.4,29.89,NNE,23,0.4,0.7,90,0.00,,,0.00,WUHU216HW,2013-09-05 14:01:00,
2013-09-05 10:06:00,69.5,66.4,29.89,NE,45,0.7,1.1,90,0.00,,,0.00,WUHU216HW,2013-09-05 14:06:00,
2013-09-05 10:11:00,69.5,66.4,29.89,NE,45,0.0,1.1,90,0.00,,,0.00,WUHU216HW,2013-09-05 14:11:00,
2013-09-05 10:16:00,69.7,66.6,29.89,NE,45,0.7,1.1,90,0.00,,,0.00,WUHU216HW,2013-09-05 14:16:00,
2013-09-05 10:21:00,69.8,66.8,29.89,NE,45,0.0,0.7,90,0.00,,,0.00,WUHU216HW,2013-09-05 14:21:00,
2013-09-05 10:26:00,70.6,67.5,29.89,NE,45,0.0,0.7,90,0.00,,,0.00,WUHU216HW,2013-09-05 14:26:00,
2013-09-05 10:31:00,71.1,67.7,29.89,NE,45,0.0,0.7,89,0.00,,,0.00,WUHU216HW,2013-09-05 14:31:00,
2013-09-05 10:36:00,71.6,68.2,29.89,NE,45,0.7,1.1,89,0.00,,,0.00,WUHU216HW,2013-09-05 14:36:00,
2013-09-05 10:41:00,72.0,68.2,29.90,NE,45,0.0,1.1,88,0.00,,,0.00,WUHU216HW,2013-09-05 14:41:00,
2013-09-05 10:46:00,72.4,68.6,29.90,WNW,293,0.0,0.7,88,0.00,,,0.00,WUHU216HW,2013-09-05 14:46:00,
2013-09-05 10:51:00,72.7,68.7,29.90,ENE,68,0.2,0.4,87,0.00,,,0.00,WUHU216HW,2013-09-05 14:51:00,
2013-09-05 10:56:00,72.9,68.5,29.90,SW,225,0.4,1.6,86,0.00,,,0.00,WUHU216HW,2013-09-05 14:56:00,
2013-09-05 11:01:00,73.1,69.0,29.90,WSW,248,0.0,1.6,87,0.00,,,0.00,WUHU216HW,2013-09-05 15:01:00,
2013-09-05 11:06:00,73.3,68.5,29.90,North,0,0.0,0.7,85,0.00,,,0.00,WUHU216HW,2013-09-05 15:06:00,
2013-09-05 11:11:00,73.6,67.5,29.90,NE,45,0.4,0.7,81,0.00,,,0.00,WUHU216HW,2013-09-05 15:11:00,
2013-09-05 11:16:00,73.8,67.7,29.90,NW,315,0.0,0.4,81,0.00,,,0.00,WUHU216HW,2013-09-05 15:16:00,
2013-09-05 11:21:00,73.8,68.1,29.90,NE,45,0.9,1.3,82,0.00,,,0.00,WUHU216HW,2013-09-05 15:21:00,
2013-09-05 11:26:00,73.8,68.3,29.90,NE,45,0.4,1.3,83,0.00,,,0.00,WUHU216HW,2013-09-05 15:26:00,
2013-09-05 11:31:00,73.8,67.7,29.90,NNW,338,0.0,1.6,81,0.00,,,0.00,WUHU216HW,2013-09-05 15:31:00,
2013-09-05 11:36:00,73.8,67.0,29.90,NE,45,0.7,1.6,79,0.00,,,0.00,WUHU216HW,2013-09-05 15:36:00,
2013-09-05 11:41:00,74.0,67.2,29.90,North,0,0.0,1.1,79,0.00,,,0.00,WUHU216HW,2013-09-05 15:41:00,
2013-09-05 11:46:00,74.2,66.9,29.90,NNE,23,0.0,1.1,78,0.00,,,0.00,WUHU216HW,2013-09-05 15:46:00,
2013-09-05 11:51:00,74.0,67.2,29.90,North,0,0.4,1.1,79,0.00,,,0.00,WUHU216HW,2013-09-05 15:51:00,
2013-09-05 11:56:00,73.8,66.6,29.90,NNE,23,0.4,1.6,78,0.00,,,0.00,WUHU216HW,2013-09-05 15:56:00,
2013-09-05 12:01:00,74.0,66.7,29.90,SW,225,0.2,1.8,78,0.00,,,0.00,WUHU216HW,2013-09-05 16:01:00,
2013-09-05 12:06:00,74.2,66.2,29.90,NE,45,1.3,2.2,76,0.00,,,0.00,WUHU216HW,2013-09-05 16:06:00,
2013-09-05 12:11:00,74.5,66.1,29.90,North,0,0.4,2.5,75,0.00,,,0.00,WUHU216HW,2013-09-05 16:11:00,
2013-09-05 12:16:00,74.7,66.2,29.90,SW,225,0.4,2.9,75,0.00,,,0.00,WUHU216HW,2013-09-05 16:16:00,
2013-09-05 12:21:00,74.9,66.4,29.90,SW,225,0.0,2.9,75,0.00,,,0.00,WUHU216HW,2013-09-05 16:21:00,
2013-09-05 12:26:00,75.4,67.0,29.90,NNW,338,0.2,1.3,75,0.00,,,0.00,WUHU216HW,2013-09-05 16:26:00,
2013-09-05 12:31:00,75.2,64.4,29.90,NE,45,2.2,2.2,69,0.00,,,0.00,WUHU216HW,2013-09-05 16:31:00,
2013-09-05 12:36:00,75.2,64.8,29.90,ENE,68,1.1,2.5,70,0.00,,,0.00,WUHU216HW,2013-09-05 16:36:00,
2013-09-05 12:41:00,75.4,65.3,29.89,SSE,158,0.7,2.5,71,0.00,,,0.00,WUHU216HW,2013-09-05 16:41:00,
2013-09-05 12:46:00,75.6,65.2,29.89,NE,45,0.9,1.8,70,0.00,,,0.00,WUHU216HW,2013-09-05 16:46:00,
2013-09-05 12:51:00,76.0,65.5,29.89,NW,315,0.0,1.8,70,0.00,,,0.00,WUHU216HW,2013-09-05 16:51:00,
2013-09-05 12:56:00,76.0,65.5,29.89,North,0,0.4,1.8,70,0.00,,,0.00,WUHU216HW,2013-09-05 16:56:00,
2013-09-05 13:01:00,76.0,65.5,29.89,NNE,23,0.2,1.3,70,0.00,,,0.00,WUHU216HW,2013-09-05 17:01:00,
2013-09-05 13:06:00,76.3,66.2,29.89,SSE,158,1.6,1.6,71,0.00,,,0.00,WUHU216HW,2013-09-05 17:06:00,
2013-09-05 13:11:00,76.7,65.3,29.89,NW,315,0.4,2.9,68,0.00,,,0.00,WUHU216HW,2013-09-05 17:11:00,
2013-09-05 13:16:00,77.0,67.0,29.89,SSE,158,0.2,2.9,71,0.00,,,0.00,WUHU216HW,2013-09-05 17:16:00,
2013-09-05 13:21:00,77.2,66.8,29.89,SSW,203,0.0,1.1,70,0.00,,,0.00,WUHU216HW,2013-09-05 17:21:00,
2013-09-05 13:26:00,77.6,67.1,29.89,NNE,23,0.0,1.1,70,0.00,,,0.00,WUHU216HW,2013-09-05 17:26:00,
2013-09-05 13:31:00,77.9,66.1,29.89,NNE,23,2.2,2.2,67,0.00,,,0.00,WUHU216HW,2013-09-05 17:31:00,
2013-09-05 13:36:00,78.1,66.2,29.89,ENE,68,0.2,2.2,67,0.00,,,0.00,WUHU216HW,2013-09-05 17:36:00,
2013-09-05 13:41:00,78.5,66.2,29.89,SSW,203,0.9,2.5,66,0.00,,,0.00,WUHU216HW,2013-09-05 17:41:00,
2013-09-05 13:46:00,78.5,66.2,29.89,NE,45,0.4,2.5,66,0.00,,,0.00,WUHU216HW,2013-09-05 17:46:00,
2013-09-05 13:51:00,78.8,66.5,29.89,SW,225,0.0,1.3,66,0.00,,,0.00,WUHU216HW,2013-09-05 17:51:00,
2013-09-05 13:56:00,79.0,65.8,29.89,NE,45,0.0,2.7,64,0.00,,,0.00,WUHU216HW,2013-09-05 17:56:00,
2013-09-05 14:01:00,79.6,67.1,29.89,WSW,248,0.9,2.7,66,0.00,,,0.00,WUHU216HW,2013-09-05 18:01:00,
2013-09-05 14:06:00,79.9,66.3,29.89,NE,45,0.9,2.5,63,0.00,,,0.00,WUHU216HW,2013-09-05 18:06:00,
2013-09-05 14:11:00,80.5,66.2,29.88,NE,45,1.8,2.5,62,0.00,,,0.00,WUHU216HW,2013-09-05 18:11:00,
2013-09-05 14:16:00,80.3,65.6,29.88,NNW,338,1.1,4.0,61,0.00,,,0.00,WUHU216HW,2013-09-05 18:16:00,
2013-09-05 14:21:00,80.5,66.2,29.88,NE,45,0.4,4.0,62,0.00,,,0.00,WUHU216HW,2013-09-05 18:21:00,
2013-09-05 14:26:00,80.6,66.0,29.88,SW,225,0.0,1.8,61,0.00,,,0.00,WUHU216HW,2013-09-05 18:26:00,
2013-09-05 14:31:00,80.5,65.3,29.88,SW,225,0.2,2.5,60,0.00,,,0.00,WUHU216HW,2013-09-05 18:31:00,
2013-09-05 14:36:00,80.3,65.2,29.88,NNE,23,0.2,2.5,60,0.00,,,0.00,WUHU216HW,2013-09-05 18:36:00,
2013-09-05 14:41:00,80.1,64.5,29.88,WSW,248,0.4,2.7,59,0.00,,,0.00,WUHU216HW,2013-09-05 18:41:00,
2013-09-05 14:46:00,80.3,65.6,29.88,ENE,68,0.0,2.7,61,0.00,,,0.00,WUHU216HW,2013-09-05 18:46:00,
2013-09-05 14:51:00,80.5,65.3,29.88,NE,45,0.4,2.2,60,0.00,,,0.00,WUHU216HW,2013-09-05 18:51:00,
2013-09-05 14:56:00,80.5,65.8,29.88,NE,45,0.4,2.2,61,0.00,,,0.00,WUHU216HW,2013-09-05 18:56:00,
2013-09-05 15:01:00,81.0,66.3,29.88,WSW,248,0.0,0.9,61,0.00,,,0.00,WUHU216HW,2013-09-05 19:01:00,
2013-09-05 15:06:00,81.4,66.6,29.88,NE,45,0.4,1.1,61,0.00,,,0.00,WUHU216HW,2013-09-05 19:06:00,
2013-09-05 15:11:00,81.0,65.9,29.87,NE,45,1.3,2.2,60,0.00,,,0.00,WUHU216HW,2013-09-05 19:11:00,
2013-09-05 15:16:00,81.0,66.3,29.87,West,270,0.0,2.2,61,0.00,,,0.00,WUHU216HW,2013-09-05 19:16:00,
2013-09-05 15:21:00,81.4,65.6,29.87,West,270,0.0,1.3,59,0.00,,,0.00,WUHU216HW,2013-09-05 19:21:00,
2013-09-05 15:26:00,81.7,67.0,29.87,NE,45,1.3,1.3,61,0.00,,,0.00,WUHU216HW,2013-09-05 19:26:00,
2013-09-05 15:31:00,81.7,66.0,29.87,NNE,23,0.2,1.8,59,0.00,,,0.00,WUHU216HW,2013-09-05 19:31:00,
2013-09-05 15:36:00,81.5,66.8,29.87,NNE,23,0.0,1.8,61,0.00,,,0.00,WUHU216HW,2013-09-05 19:36:00,
2013-09-05 15:41:00,81.9,66.7,29.86,NNW,338,0.2,1.3,60,0.00,,,0.00,WUHU216HW,2013-09-05 19:41:00,
2013-09-05 15:46:00,81.7,66.5,29.87,NE,45,1.3,1.6,60,0.00,,,0.00,WUHU216HW,2013-09-05 19:46:00,
2013-09-05 15:51:00,81.4,65.6,29.86,NE,45,3.4,3.4,59,0.00,,,0.00,WUHU216HW,2013-09-05 19:51:00,
2013-09-05 15:56:00,80.6,66.0,29.86,North,0,0.0,3.4,61,0.00,,,0.00,WUHU216HW,2013-09-05 19:56:00,
2013-09-05 16:01:00,80.5,66.7,29.86,NE,45,0.7,3.4,63,0.00,,,0.00,WUHU216HW,2013-09-05 20:01:00,
2013-09-05 16:06:00,80.1,66.8,29.86,North,0,0.0,1.8,64,0.00,,,0.00,WUHU216HW,2013-09-05 20:06:00,
2013-09-05 16:11:00,79.9,66.6,29.86,North,0,0.4,1.6,64,0.00,,,0.00,WUHU216HW,2013-09-05 20:11:00,
2013-09-05 16:16:00,79.7,66.9,29.86,NNE,23,1.1,2.2,65,0.00,,,0.00,WUHU216HW,2013-09-05 20:16:00,
2013-09-05 16:21:00,79.7,65.6,29.86,NE,45,1.6,2.2,62,0.00,,,0.00,WUHU216HW,2013-09-05 20:21:00,
2013-09-05 16:26:00,79.7,66.1,29.86,ENE,68,1.1,2.7,63,0.00,,,0.00,WUHU216HW,2013-09-05 20:26:00,
2013-09-05 16:31:00,79.9,66.3,29.86,NE,45,1.8,2.7,63,0.00,,,0.00,WUHU216HW,2013-09-05 20:31:00,
2013-09-05 16:36:00,79.7,66.5,29.86,North,0,0.0,2.2,64,0.00,,,0.00,WUHU216HW,2013-09-05 20:36:00,
2013-09-05 16:41:00,79.7,66.1,29.86,NE,45,1.1,1.8,63,0.00,,,0.00,WUHU216HW,2013-09-05 20:41:00,
2013-09-05 16:46:00,80.3,66.5,29.86,ENE,68,1.3,1.8,63,0.00,,,0.00,WUHU216HW,2013-09-05 20:46:00,
2013-09-05 16:51:00,80.5,65.8,29.86,NNE,23,0.4,3.4,61,0.00,,,0.00,WUHU216HW,2013-09-05 20:51:00,
2013-09-05 16:56:00,80.3,66.1,29.86,ENE,68,1.3,3.4,62,0.00,,,0.00,WUHU216HW,2013-09-05 20:56:00,
2013-09-05 17:01:00,80.5,66.7,29.86,NNW,338,0.0,2.0,63,0.00,,,0.00,WUHU216HW,2013-09-05 21:01:00,
2013-09-05 17:06:00,80.6,66.9,29.86,NE,45,0.4,2.0,63,0.00,,,0.00,WUHU216HW,2013-09-05 21:06:00,
2013-09-05 17:11:00,80.3,66.5,29.86,NE,45,0.0,1.6,63,0.00,,,0.00,WUHU216HW,2013-09-05 21:11:00,
2013-09-05 17:16:00,79.9,66.3,29.86,NE,45,0.0,1.3,63,0.00,,,0.00,WUHU216HW,2013-09-05 21:16:00,
2013-09-05 17:21:00,79.7,66.9,29.86,NE,45,0.0,1.3,65,0.00,,,0.00,WUHU216HW,2013-09-05 21:21:00,
2013-09-05 17:26:00,79.4,65.7,29.86,NNE,23,0.0,2.0,63,0.00,,,0.00,WUHU216HW,2013-09-05 21:26:00,
2013-09-05 17:31:00,79.2,66.4,29.86,NE,45,0.2,2.0,65,0.00,,,0.00,WUHU216HW,2013-09-05 21:31:00,
2013-09-05 17:36:00,79.0,66.3,29.86,NNE,23,1.6,2.5,65,0.00,,,0.00,WUHU216HW,2013-09-05 21:36:00,
2013-09-05 17:41:00,79.2,66.9,29.86,NE,45,2.9,2.9,66,0.00,,,0.00,WUHU216HW,2013-09-05 21:41:00,
2013-09-05 17:46:00,78.8,66.1,29.86,NE,45,0.4,2.9,65,0.00,,,0.00,WUHU216HW,2013-09-05 21:46:00,
2013-09-05 17:51:00,78.8,66.1,29.86,NNW,338,2.2,2.9,65,0.00,,,0.00,WUHU216HW,2013-09-05 21:51:00,
2013-09-05 17:56:00,78.7,65.9,29.86,NNE,23,2.7,2.9,65,0.00,,,0.00,WUHU216HW,2013-09-05 21:56:00,
2013-09-05 18:01:00,78.3,66.0,29.86,East,90,0.7,2.7,66,0.00,,,0.00,WUHU216HW,2013-09-05 22:01:00,
2013-09-05 18:06:00,78.3,66.0,29.86,West,270,0.0,2.7,66,0.00,,,0.00,WUHU216HW,2013-09-05 22:06:00,
2013-09-05 18:11:00,78.3,66.4,29.86,NNE,23,0.2,1.1,67,0.00,,,0.00,WUHU216HW,2013-09-05 22:11:00,
2013-09-05 18:16:00,78.1,66.2,29.86,NNW,338,0.0,1.1,67,0.00,,,0.00,WUHU216HW,2013-09-05 22:16:00,
2013-09-05 18:21:00,78.1,66.7,29.86,NNW,338,0.0,1.1,68,0.00,,,0.00,WUHU216HW,2013-09-05 22:21:00,
2013-09-05 18:26:00,78.1,66.7,29.86,NNE,23,0.0,1.1,68,0.00,,,0.00,WUHU216HW,2013-09-05 22:26:00,
2013-09-05 18:31:00,78.1,66.7,29.86,NNE,23,0.4,1.1,68,0.00,,,0.00,WUHU216HW,2013-09-05 22:31:00,
2013-09-05 18:36:00,77.8,66.3,29.85,NE,45,0.7,0.9,68,0.00,,,0.00,WUHU216HW,2013-09-05 22:36:00,
2013-09-05 18:41:00,77.6,66.6,29.85,NE,45,0.9,0.9,69,0.00,,,0.00,WUHU216HW,2013-09-05 22:41:00,
2013-09-05 18:46:00,77.2,66.8,29.86,NNE,23,0.9,1.1,70,0.00,,,0.00,WUHU216HW,2013-09-05 22:46:00,
2013-09-05 18:51:00,76.9,66.4,29.85,NW,315,0.0,2.0,70,0.00,,,0.00,WUHU216HW,2013-09-05 22:51:00,
2013-09-05 18:56:00,76.3,66.2,29.85,SW,225,0.0,2.0,71,0.00,,,0.00,WUHU216HW,2013-09-05 22:56:00,
2013-09-05 19:01:00,76.0,65.9,29.85,NE,45,0.4,2.5,71,0.00,,,0.00,WUHU216HW,2013-09-05 23:01:00,
2013-09-05 19:06:00,75.6,65.5,29.85,NE,45,0.0,2.5,71,0.00,,,0.00,WUHU216HW,2013-09-05 23:06:00,
2013-09-05 19:11:00,75.2,65.2,29.85,NNE,23,1.8,2.0,71,0.00,,,0.00,WUHU216HW,2013-09-05 23:11:00,
2013-09-05 19:16:00,75.1,65.4,29.85,NE,45,0.0,2.0,72,0.00,,,0.00,WUHU216HW,2013-09-05 23:16:00,
2013-09-05 19:21:00,75.1,65.4,29.85,ENE,68,0.0,1.8,72,0.00,,,0.00,WUHU216HW,2013-09-05 23:21:00,
2013-09-05 19:26:00,74.7,65.1,29.85,SE,135,0.0,0.9,72,0.00,,,0.00,WUHU216HW,2013-09-05 23:26:00,
2013-09-05 19:31:00,74.5,65.4,29.85,NNE,23,0.0,1.1,73,0.00,,,0.00,WUHU216HW,2013-09-05 23:31:00,
2013-09-05 19:36:00,74.3,65.5,29.85,NE,45,0.0,1.1,74,0.00,,,0.00,WUHU216HW,2013-09-05 23:36:00,
2013-09-05 19:41:00,74.0,65.2,29.85,NE,45,0.0,0.9,74,0.00,,,0.00,WUHU216HW,2013-09-05 23:41:00,
2013-09-05 19:46:00,73.8,65.4,29.86,NE,45,0.0,0.0,75,0.00,,,0.00,WUHU216HW,2013-09-05 23:46:00,
2013-09-05 19:51:00,73.6,65.3,29.86,NE,45,0.0,0.0,75,0.00,,,0.00,WUHU216HW,2013-09-05 23:51:00,
2013-09-05 19:56:00,73.3,64.9,29.86,SSE,158,0.0,0.0,75,0.00,,,0.00,WUHU216HW,2013-09-05 23:56:00,
2013-09-05 20:01:00,72.9,64.9,29.86,SSE,158,0.0,0.0,76,0.00,,,0.00,WUHU216HW,2013-09-06 00:01:00,
2013-09-05 20:06:00,72.5,64.9,29.86,SSE,158,0.0,0.0,77,0.00,,,0.00,WUHU216HW,2013-09-06 00:06:00,
2013-09-05 20:11:00,72.4,64.7,29.86,East,90,0.0,0.0,77,0.00,,,0.00,WUHU216HW,2013-09-06 00:11:00,
2013-09-05 20:16:00,72.2,65.0,29.86,ESE,113,0.0,0.0,78,0.00,,,0.00,WUHU216HW,2013-09-06 00:16:00,
2013-09-05 20:21:00,72.0,65.2,29.86,SE,135,0.0,0.0,79,0.00,,,0.00,WUHU216HW,2013-09-06 00:21:00,
2013-09-05 20:26:00,71.6,64.8,29.86,SE,135,0.0,0.0,79,0.00,,,0.00,WUHU216HW,2013-09-06 00:26:00,
2013-09-05 20:31:00,71.5,65.0,29.86,SE,135,0.0,0.0,80,0.00,,,0.00,WUHU216HW,2013-09-06 00:31:00,
2013-09-05 20:36:00,71.3,64.8,29.86,SE,135,0.0,0.0,80,0.00,,,0.00,WUHU216HW,2013-09-06 00:36:00,
2013-09-05 20:41:00,70.9,64.4,29.87,SE,135,0.0,0.0,80,0.00,,,0.00,WUHU216HW,2013-09-06 00:41:00,
2013-09-05 20:46:00,70.7,64.6,29.87,SE,135,0.0,0.0,81,0.00,,,0.00,WUHU216HW,2013-09-06 00:46:00,
2013-09-05 20:51:00,70.6,64.8,29.87,ENE,68,0.0,0.0,82,0.00,,,0.00,WUHU216HW,2013-09-06 00:51:00,
2013-09-05 20:56:00,70.6,64.8,29.87,ENE,68,0.0,0.0,82,0.00,,,0.00,WUHU216HW,2013-09-06 00:56:00,
2013-09-05 21:01:00,70.6,64.8,29.88,ENE,68,0.0,0.0,82,0.00,,,0.00,WUHU216HW,2013-09-06 01:01:00,
2013-09-05 21:06:00,70.4,64.9,29.88,ENE,68,0.0,0.0,83,0.00,,,0.00,WUHU216HW,2013-09-06 01:06:00,
2013-09-05 21:11:00,70.2,64.7,29.88,ENE,68,0.0,0.0,83,0.00,,,0.00,WUHU216HW,2013-09-06 01:11:00,
2013-09-05 21:16:00,70.0,64.9,29.88,ENE,68,0.0,0.0,84,0.00,,,0.00,WUHU216HW,2013-09-06 01:16:00,
2013-09-05 21:21:00,69.8,64.7,29.88,NE,45,0.0,0.0,84,0.00,,,0.00,WUHU216HW,2013-09-06 01:21:00,
2013-09-05 21:26:00,69.7,64.5,29.88,NE,45,0.0,0.0,84,0.00,,,0.00,WUHU216HW,2013-09-06 01:26:00,
2013-09-05 21:31:00,69.5,64.7,29.88,ENE,68,0.0,0.0,85,0.00,,,0.00,WUHU216HW,2013-09-06 01:31:00,
2013-09-05 21:36:00,69.5,64.7,29.88,ENE,68,0.0,0.0,85,0.00,,,0.00,WUHU216HW,2013-09-06 01:36:00,
2013-09-05 21:41:00,69.3,64.5,29.88,ENE,68,0.0,0.0,85,0.00,,,0.00,WUHU216HW,2013-09-06 01:41:00,
2013-09-05 21:46:00,69.1,64.7,29.88,SSE,158,0.0,0.0,86,0.00,,,0.00,WUHU216HW,2013-09-06 01:46:00,
2013-09-05 21:51:00,68.9,64.5,29.89,SSE,158,0.0,0.0,86,0.00,,,0.00,WUHU216HW,2013-09-06 01:51:00,
2013-09-05 21:56:00,68.8,64.4,29.89,SSE,158,0.0,0.0,86,0.00,,,0.00,WUHU216HW,2013-09-06 01:56:00,
2013-09-05 22:01:00,68.8,64.7,29.89,SSE,158,0.0,0.0,87,0.00,,,0.00,WUHU216HW,2013-09-06 02:01:00,
2013-09-05 22:06:00,68.6,64.5,29.89,SSE,158,0.0,0.0,87,0.00,,,0.00,WUHU216HW,2013-09-06 02:06:00,
2013-09-05 22:11:00,68.6,64.9,29.89,SSE,158,0.0,0.0,88,0.00,,,0.00,WUHU216HW,2013-09-06 02:11:00,
2013-09-05 22:16:00,68.4,64.7,29.89,SSE,158,0.0,0.0,88,0.00,,,0.00,WUHU216HW,2013-09-06 02:16:00,
2013-09-05 22:21:00,68.4,64.7,29.89,SSE,158,0.0,0.0,88,0.00,,,0.00,WUHU216HW,2013-09-06 02:21:00,
2013-09-05 22:26:00,68.2,64.5,29.89,SSE,158,0.0,0.0,88,0.00,,,0.00,WUHU216HW,2013-09-06 02:26:00,
2013-09-05 22:31:00,68.0,64.4,29.89,South,180,0.0,0.0,88,0.00,,,0.00,WUHU216HW,2013-09-06 02:31:00,
2013-09-05 22:36:00,68.0,64.4,29.89,South,180,0.0,0.0,88,0.00,,,0.00,WUHU216HW,2013-09-06 02:36:00,
2013-09-05 22:41:00,68.0,64.6,29.89,South,180,0.0,0.0,89,0.00,,,0.00,WUHU216HW,2013-09-06 02:41:00,
2013-09-05 22:46:00,68.0,64.6,29.89,South,180,0.0,0.0,89,0.00,,,0.00,WUHU216HW,2013-09-06 02:46:00,
2013-09-05 22:51:00,68.2,65.2,29.89,South,180,0.0,0.0,90,0.00,,,0.00,WUHU216HW,2013-09-06 02:51:00,
2013-09-05 22:56:00,68.2,65.2,29.90,NW,315,0.0,0.0,90,0.00,,,0.00,WUHU216HW,2013-09-06 02:56:00,
2013-09-05 23:01:00,68.0,65.0,29.89,NW,315,0.0,0.0,90,0.00,,,0.00,WUHU216HW,2013-09-06 03:01:00,
2013-09-05 23:06:00,68.0,65.0,29.90,NW,315,0.0,0.0,90,0.00,,,0.00,WUHU216HW,2013-09-06 03:06:00,
2013-09-05 23:11:00,68.0,65.0,29.89,NW,315,0.0,0.0,90,0.00,,,0.00,WUHU216HW,2013-09-06 03:11:00,
2013-09-05 23:16:00,67.9,64.8,29.90,WNW,293,0.0,0.0,90,0.00,,,0.00,WUHU216HW,2013-09-06 03:16:00,
2013-09-05 23:21:00,67.7,64.6,29.90,WNW,293,0.0,0.0,90,0.00,,,0.00,WUHU216HW,2013-09-06 03:21:00,
2013-09-05 23:26:00,67.7,64.6,29.89,WNW,293,0.0,0.0,90,0.00,,,0.00,WUHU216HW,2013-09-06 03:26:00,
2013-09-05 23:31:00,67.9,65.1,29.90,WNW,293,0.0,0.0,91,0.00,,,0.00,WUHU216HW,2013-09-06 03:31:00,
2013-09-05 23:36:00,67.9,65.1,29.90,WNW,293,0.0,0.0,91,0.00,,,0.00,WUHU216HW,2013-09-06 03:36:00,
2013-09-05 23:41:00,67.9,65.1,29.90,WNW,293,0.0,0.0,91,0.00,,,0.00,WUHU216HW,2013-09-06 03:41:00,
2013-09-05 23:46:00,67.7,64.9,29.90,WNW,293,0.0,0.0,91,0.00,,,0.00,WUHU216HW,2013-09-06 03:46:00,
2013-09-05 23:51:00,67.5,64.7,29.89,SSW,203,0.0,0.0,91,0.00,,,0.00,WUHU216HW,2013-09-06 03:51:00,
2013-09-05 23:56:00,67.3,64.5,29.89,South,180,0.0,0.0,91,0.00,,,0.00,WUHU216HW,2013-09-06 03:56:00,